User: anonymous   Login
Location: Unspecified
(0.0000°N, 0.0000°E)
Time: 01:46:02
(UTC+00:00)
Language:

Aussat K3 - Orbit

View from above orbital plane
View from above orbital plane
View from above satellite
View from above satellite

Ground track
Ground track

The orbit data is extracted from the following two-line orbital elements,

1 18350U 87078A   18171.71279970 -.00000032 +00000-0 +00000-0 0  9993
2 18350 014.7899 014.5092 0008717 308.0680 240.7070 00.98905874017172
Epoch (UTC): 20 June 2018 17:06:25
Eccentricity: 0.0008717
inclination: 14.7899°
perigee height: 36136 km
apogee height: 36210 km
right ascension of ascending node: 14.5092°
argument of perigee: 308.0680°
revolutions per day: 0.98905874
mean anomaly at epoch: 240.7070°
orbit number at epoch: 1717

The dashed part of the orbit path shows where the satellite is in the earth's shadow,  

DLR